Online Auction of Sound, Stage, and Lighting Equipment for Sale in Orange County, CA

Lot #0129: 10' Aluminum Stage Truss

Bidding is closed.
High Bid:$325.00
NA
Bidding Ended: Thu, Jan 10  10:33:09 am PT
High Bidder: Dano1954
Bid Increment: $10.00
Starting Bid: $5.00
Item Location: Fullerton, CA 92833
Item has been viewed 278 times.

10' Aluminum Stage Truss

NOTE: Photos shown are representative of the lot. 

Bid Date Bid Amount Bidder
Jan 10, 2019 - 10:31:09 AM $325.00 iDano1954
Jan 10, 2019 - 10:31:09 AM $321.00 ilakinetics
Jan 10, 2019 - 10:29:40 AM $311.00 ilakinetics
Jan 10, 2019 - 10:29:40 AM $301.00 iDano1954
Jan 10, 2019 - 10:29:30 AM $270.00 ilakinetics
Jan 10, 2019 - 10:29:30 AM $260.00 iDano1954
Jan 10, 2019 - 10:29:19 AM $220.00 ilakinetics
Jan 10, 2019 - 8:23:53 AM $210.00 iSdamme84
Jan 10, 2019 - 7:58:07 AM $200.00 isosdjing
Jan 10, 2019 - 7:58:07 AM $195.00 iDano1954
Jan 9, 2019 - 9:57:25 AM $140.00 isosdjing
Jan 9, 2019 - 9:57:25 AM $130.00 ifuzztheraven
Jan 9, 2019 - 3:25:42 AM $106.00 isosdjing
Jan 9, 2019 - 3:25:42 AM $101.00 iDano1954
Jan 9, 2019 - 1:20:30 AM $56.00 isosdjing
Jan 9, 2019 - 1:20:30 AM $51.00 iDano1954
Jan 8, 2019 - 10:11:40 PM $40.00 iDano1954
Jan 8, 2019 - 10:11:40 PM $35.00 itjoneslt
Jan 8, 2019 - 3:37:14 PM $20.00 iDano1954
Jan 8, 2019 - 1:34:44 PM $15.00 igajosr
Jan 8, 2019 - 12:37:45 PM $10.00 iKurt Musser
Jan 8, 2019 - 12:30:31 PM $5.00 isabzonsabz
Click on any picture to see a larger image.